Santa Fe, NM

2:14 PM MDT on May 28, 2017 (GMT -0600)
Santa Fe Municipal

Weather History for KSAF - May, 2013

Change the Weather History Date:

Sunday, May 26, 2013

  Actual Average Record
Temperature  
Mean Temperature 64 °F -  
Max Temperature 84 °F 80 °F 90 °F (2001)
Min Temperature 46 °F 38 °F 37 °F (2015)
Degree Days  
Heating Degree Days 1    
Growing Degree Days 14 (Base 50)    
Moisture  
Dew Point 10 °F    
Average Humidity 16    
Maximum Humidity 43    
Minimum Humidity 4    
Precipitation  
Precipitation 0.00 in - - ()
Sea Level Pressure  
Sea Level Pressure 29.80 in    
Wind  
Wind Speed 6 mph (WSW)    
Max Wind Speed 17 mph    
Max Gust Speed 26 mph    
Visibility 10 miles    
Events      
Averages and records for this station are not official NWS values.
T = Trace of Precipitation, MM = Missing Value Source: NWS Daily Summary

Daily Weather History Graph

Daily Weather History Graph

Search for Another Location

Airport or City:

Trip Planner

Search our weather history database for the weather conditions in past years. The results will help you decide how hot, cold, wet, or windy it might be!

Date:

Astronomy

May. 26, 2013 Rise Set
Actual Time 5:52 AM MDT 8:10 PM MDT
Civil Twilight 5:23 AM MDT 8:40 PM MDT
Nautical Twilight 4:47 AM MDT 9:16 PM MDT
Astronomical Twilight 4:08 AM MDT 9:55 PM MDT
Moon 10:02 PM MDT (5/26) 7:23 AM MDT (5/26)
Length of Visible Light 15h 17m
Length of Day
14h 18m
Waning Gibbous, 96% of the Moon is Illuminated
May 26
Waning Gibbous
May 31
Last Quarter
Jun 8
New
Jun 16
First Quarter
Jun 23
Full

Hourly Weather History & Observations

Time (MDT) Temp. Windchill Dew Point Humidity Pressure Visibility Wind Dir Wind Speed Gust Speed Precip Events Conditions
12:53 AM 62.1 °F - 26.1 °F 25% 29.79 in 10.0 mi SE 3.5 mph - N/A   Clear
1:53 AM 55.9 °F - 26.1 °F 32% 29.79 in 10.0 mi Calm Calm - N/A   Clear
2:53 AM 55.0 °F - 33.1 °F 43% 29.82 in 10.0 mi Calm Calm - N/A   Clear
3:53 AM 52.0 °F - 30.0 °F 43% 29.84 in 10.0 mi Calm Calm - N/A   Clear
4:53 AM 48.0 °F - 25.0 °F 41% 29.86 in 10.0 mi North 8.1 mph - N/A   Clear
5:53 AM 46.0 °F 42.5 °F 23.0 °F 40% 29.88 in 10.0 mi NNE 6.9 mph - N/A   Clear
6:53 AM 48.9 °F - 23.0 °F 36% 29.87 in 10.0 mi North 3.5 mph - N/A   Clear
7:53 AM 61.0 °F - 26.1 °F 26% 29.85 in 10.0 mi Calm Calm - N/A   Clear
8:53 AM 68.0 °F - 12.9 °F 12% 29.85 in 10.0 mi SW 5.8 mph - N/A   Clear
9:53 AM 73.9 °F - 9.0 °F 8% 29.83 in 10.0 mi WSW 11.5 mph 17.3 mph N/A   Clear
10:53 AM 75.9 °F - 8.1 °F 7% 29.85 in 10.0 mi Variable 4.6 mph 19.6 mph N/A   Clear
11:53 AM 79.0 °F - 6.1 °F 6% 29.83 in 10.0 mi SW 13.8 mph 23.0 mph N/A   Clear
12:53 PM 79.0 °F - 3.9 °F 6% 29.83 in 10.0 mi WSW 17.3 mph 26.5 mph N/A   Clear
1:53 PM 80.1 °F - 1.9 °F 5% 29.83 in 10.0 mi SW 15.0 mph 23.0 mph N/A   Clear
2:53 PM 81.0 °F - -2.0 °F 4% 29.81 in 10.0 mi SW 17.3 mph 21.9 mph N/A   Clear
3:53 PM 80.1 °F - -2.0 °F 4% 29.81 in 10.0 mi SW 6.9 mph 23.0 mph N/A   Clear
4:53 PM 82.0 °F - -2.0 °F 4% 29.78 in 10.0 mi Variable 5.8 mph - N/A   Clear
5:53 PM 82.9 °F - 1.0 °F 4% 29.76 in 10.0 mi SW 12.7 mph 21.9 mph N/A   Clear
6:53 PM 81.0 °F - -2.9 °F 4% 29.75 in 10.0 mi SSW 11.5 mph 26.5 mph N/A   Clear
7:53 PM 78.1 °F - -4.0 °F 4% 29.70 in 10.0 mi SSW 8.1 mph - N/A   Clear
8:53 PM 72.0 °F - -2.9 °F 5% 29.71 in 10.0 mi SSW 6.9 mph - N/A   Clear
9:53 PM 66.0 °F - -0.9 °F 7% 29.73 in 10.0 mi WNW 9.2 mph - N/A   Clear
10:53 PM 64.9 °F - 1.9 °F 8% 29.75 in 10.0 mi NW 4.6 mph - N/A   Clear
11:53 PM 66.0 °F - 1.0 °F 8% 29.74 in 10.0 mi Variable 3.5 mph - N/A   Clear